User: anonymous
Location: Unspecified
(0.0000°N, 0.0000°E)
Time: 13:04:54
(UTC+00:00)
Language:

USA 176 - Orbit

View from above orbital plane
View from above orbital plane
View from above satellite
View from above satellite

Ground track
Ground track

The orbit data is extracted from the following two-line orbital elements,

1 28158U 04004A   14224.07762366 0.00000000  00000-0  00000-0 0    05
2 28158   6.0664  53.9818 0004020  20.2242 339.8166  1.00270000    06
Epoch (UTC): 12 August 2014 01:51:46
Eccentricity: 0.0004020
inclination: 6.0664°
perigee height: 35770 km
apogee height: 35803 km
right ascension of ascending node: 53.9818°
argument of perigee: 20.2242°
revolutions per day: 1.00270000
mean anomaly at epoch: 339.8166°
orbit number at epoch: 0

The dashed part of the orbit path shows where the satellite is in the earth's shadow,  

DLR